Lapse_Rate
6.1 6.2 6.2 6.0 5.7 6.0 5.9 5.8 5.8 6.1 6.5 6.7 6.7 6.7 7.0 6.7 7.4 8.6 8.5 8.7 9.0 9.2
6.3 6.0 5.9 6.1 5.9 5.7 6.1 6.8 6.6 6.6 6.5 6.7 7.0 7.6 7.8 7.9 8.6 9.1 9.0 9.2 9.1 9.2
6.3 6.3 6.3 6.2 5.8 6.0 6.8 6.9 6.7 6.8 6.9 7.1 7.4 7.7 7.8 8.1 8.9 9.3 9.3 9.5 9.4 9.4
6.2 6.3 6.5 6.2 6.2 6.5 7.3 7.3 7.2 7.0 6.9 7.1 7.3 7.5 8.1 8.6 9.2 9.4 9.4 9.5 9.5 9.3
6.2 6.4 6.2 6.2 6.6 7.1 7.2 7.4 7.2 7.0 6.9 7.2 7.4 7.9 8.6 9.1 9.5 9.5 9.4 9.5 9.4 9.4
6.1 6.1 6.7 6.9 7.0 7.0 6.9 6.9 7.1 7.1 7.1 7.3 7.8 8.7 9.4 9.6 9.4 9.6 9.7 9.6 9.5 9.5
5.8 6.1 6.4 6.9 6.9 6.8 6.8 6.8 7.0 7.2 7.3 8.1 9.3 9.5 9.6 9.2 9.1 9.5 9.8 9.8 9.6 9.7
5.7 6.3 6.8 6.9 6.7 6.8 7.0 7.0 7.3 7.7 8.7 9.3 9.6 9.8 9.3 9.1 9.2 9.5 9.7 9.8 9.8 9.8
6.1 6.8 6.7 6.7 6.6 6.7 6.7 7.3 8.3 8.9 9.4 9.4 9.6 9.6 9.6 9.6 9.5 9.7 9.7 9.5 9.7 9.8
6.5 6.7 6.6 6.4 6.5 7.0 7.9 8.4 8.9 9.3 9.5 9.4 9.4 9.6 9.6 9.6 9.5 9.6 9.7 9.6 9.5 9.7
6.5 6.2 6.3 6.6 7.5 8.0 8.7 9.0 9.2 9.3 9.4 9.4 9.8 9.6 9.6 9.6 9.6 9.7 9.8 9.7 9.7 9.6
6.1 6.1 6.5 6.9 7.2 7.9 8.7 8.6 8.9 9.2 9.4 9.5 9.6 9.6 9.6 9.6 9.6 9.7 9.6 9.8 9.7 9.4
6.4 6.5 6.8 6.9 7.6 8.2 8.6 9.0 9.3 9.4 9.7 9.5 9.5 9.6 9.6 9.6 9.6 9.3 9.4 9.5 9.2 9.4
6.7 6.8 7.1 7.4 8.0 8.4 9.1 9.2 9.3 9.4 9.6 9.6 9.6 9.6 9.6 9.6 9.5 9.5 9.2 8.1 9.2 9.6
Wind_Speed
9 6 6 7 6 6 6 6 7 8 8 9 9 10 9 7 7 9 8 12 10 9
8 8 6 7 6 5 6 6 7 8 9 10 10 10 10 7 10 10 10 10 11 10
7 7 6 6 6 7 6 7 8 9 9 10 10 11 11 10 10 12 9 9 12 12
6 6 5 5 6 6 7 7 8 9 10 11 12 12 12 12 13 12 13 13 13 14
5 5 6 5 6 6 7 8 8 9 10 11 12 13 13 13 13 14 15 15 15 15
5 5 5 6 6 7 8 9 9 10 11 12 12 13 13 14 14 15 15 15 15 15
4 5 5 6 7 7 8 9 10 11 12 12 13 13 13 13 14 15 15 15 15 15
4 4 5 6 7 8 9 9 11 12 12 12 11 10 12 13 15 15 16 16 15 14
3 4 5 6 8 9 10 11 11 12 12 12 10 19 21 17 14 16 16 15 15 14
3 5 6 7 9 10 11 12 12 12 13 13 13 21 22 22 13 15 14 16 15 15
4 6 7 8 10 10 11 12 12 12 13 13 12 21 21 21 14 14 15 15 16 16
5 6 8 9 11 11 11 11 11 12 13 14 13 20 20 18 14 14 16 14 15 17
5 7 9 10 12 11 11 11 10 13 13 17 13 18 21 18 11 14 12 14 15 24
6 8 9 10 10 11 11 11 12 13 12 13 13 13 21 23 13 11 13 12 13 12
Wind_Direction
64 57 51 41 29 24 14 12 359 354 351 349 346 341 336 321 321 307 311 304 308 304
65 59 46 38 30 15 10 353 355 351 347 342 335 332 328 320 311 315 309 308 307 302
63 51 38 34 24 9 356 353 348 346 338 332 331 329 327 317 315 312 309 306 306 302
60 44 35 27 10 1 347 345 342 337 332 330 328 327 322 316 311 311 308 304 303 304
58 36 22 12 0 350 341 338 336 334 329 324 322 320 315 312 309 313 308 308 308 305
49 26 8 0 348 341 337 334 331 328 322 317 316 314 311 306 318 311 309 309 309 306
33 15 358 343 334 335 333 326 324 320 315 310 311 312 306 323 314 311 308 308 304 301
16 353 336 333 331 329 324 321 316 313 308 309 310 306 325 314 314 311 309 304 302 303
351 331 329 330 328 327 323 315 312 307 308 307 308 315 315 319 312 311 305 304 305 306
332 325 333 332 327 321 314 312 310 309 310 311 312 313 317 319 312 303 306 306 310 307
334 337 333 326 318 317 317 312 311 311 314 309 309 314 318 315 306 306 306 309 310 312
335 329 322 318 319 314 314 312 311 312 309 308 310 315 313 316 310 307 308 311 315 310
323 316 316 317 315 315 312 308 311 307 308 310 311 311 315 318 310 307 310 311 306 305
319 318 315 311 312 313 311 308 308 308 312 313 309 311 319 317 314 313 316 312 310 312